Total_Precipitation_Accumulation
1.11 1.07 0.98 0.98 0.90 1.01 1.17 1.27 1.24 1.16 1.17 1.15 1.06 1.18 1.27 1.36 1.42 1.49 1.68 1.94 2.26 2.75 3.09 3.02 2.68 2.35 2.22 2.18 2.20 2.19 2.22 2.37 2.36 2.38 2.41 2.34 2.28 2.18 2.17 2.17 2.10 2.04 2.09
1.07 1.07 1.05 1.07 1.03 1.07 1.21 1.23 1.15 1.20 1.30 1.23 1.09 1.14 1.24 1.31 1.38 1.40 1.48 1.70 1.97 2.25 2.85 3.20 3.06 2.81 2.76 2.55 2.59 2.54 2.43 2.26 2.20 2.30 2.30 2.28 2.30 2.16 2.09 2.02 1.98 1.91 1.89
0.93 0.99 1.01 1.02 1.07 1.18 1.25 1.32 1.16 1.20 1.20 1.15 1.16 1.16 1.15 1.19 1.21 1.23 1.23 1.33 1.50 1.80 2.33 2.83 3.12 3.17 3.23 3.11 2.95 2.74 2.47 2.23 2.17 2.21 2.21 2.12 2.19 2.12 2.01 2.04 1.92 1.93 1.88
0.87 1.01 1.04 1.02 1.05 1.21 1.34 1.43 1.35 1.34 1.31 1.28 1.28 1.26 1.17 1.21 1.13 1.13 1.17 1.19 1.38 1.40 1.78 2.23 2.58 2.82 3.16 3.17 3.01 2.84 2.53 2.15 2.03 2.11 2.16 1.98 2.01 2.03 1.93 2.03 1.92 1.83 1.78
0.97 1.16 1.26 1.26 1.25 1.28 1.32 1.32 1.42 1.47 1.45 1.44 1.35 1.33 1.29 1.21 1.24 1.14 1.16 1.26 1.27 1.37 1.62 1.85 2.03 2.16 2.57 2.78 2.91 3.08 2.87 2.38 2.09 2.12 2.16 1.95 1.91 2.05 1.92 1.90 1.85 1.68 1.61
1.33 1.49 1.48 1.57 1.62 1.53 1.53 1.49 1.55 1.53 1.46 1.53 1.42 1.29 1.27 1.19 1.31 1.36 1.30 1.36 1.37 1.38 1.74 1.94 1.87 1.72 2.05 2.37 2.64 2.98 3.10 2.78 2.49 2.28 2.29 2.14 1.98 2.13 1.94 1.86 1.84 1.59 1.52
1.63 1.88 1.85 1.93 2.00 1.91 1.87 1.88 2.10 2.05 1.77 1.59 1.69 1.55 1.39 1.26 1.43 1.49 1.43 1.54 1.62 1.75 1.97 1.99 1.80 1.60 1.50 1.70 1.97 2.43 3.04 3.03 2.84 2.54 2.43 2.26 2.01 1.96 1.76 1.73 1.74 1.63 1.49
1.53 1.67 1.96 2.10 2.08 2.18 2.29 2.28 2.66 2.78 2.29 1.86 1.95 2.21 1.97 1.77 1.59 1.46 1.50 1.57 1.70 1.92 2.04 1.93 1.74 1.51 1.35 1.37 1.38 1.80 2.38 2.77 2.84 2.70 2.53 2.27 2.06 1.87 1.77 1.79 1.75 1.77 1.61
1.50 1.61 1.77 1.92 1.97 2.10 2.27 2.38 2.72 3.26 3.01 2.36 2.18 2.60 2.37 2.15 2.04 1.74 1.57 1.57 1.62 1.89 2.17 2.11 1.86 1.63 1.43 1.44 1.36 1.53 1.82 2.10 2.65 2.87 2.76 2.48 2.28 1.99 1.89 1.99 1.79 1.93 1.92
1.38 1.47 1.61 1.74 1.86 1.91 2.08 2.18 2.33 2.88 3.28 2.96 2.68 2.38 2.05 2.00 2.20 2.19 1.84 1.64 1.63 1.75 1.97 1.97 1.85 1.78 1.63 1.49 1.37 1.33 1.57 1.79 2.32 2.79 3.02 2.88 2.62 2.32 2.29 2.44 2.13 1.98 1.96
1.47 1.47 1.61 1.69 1.71 1.79 1.91 2.25 2.53 2.82 3.06 3.07 3.06 2.85 2.55 2.27 1.95 2.22 2.26 1.92 1.79 1.74 1.80 1.86 1.77 1.76 1.75 1.65 1.69 1.47 1.39 1.57 1.85 2.32 2.91 3.24 3.03 2.75 2.79 2.87 2.46 2.25 2.15
1.62 1.63 1.67 1.69 1.67 1.72 1.84 2.08 2.38 2.62 2.94 3.17 3.13 2.93 2.79 2.67 2.43 2.35 2.22 2.05 2.06 1.91 1.79 1.77 1.64 1.63 1.76 1.90 1.85 1.83 1.51 1.34 1.42 1.71 2.11 2.61 2.89 2.95 3.09 3.12 2.83 2.79 2.60
1.54 1.57 1.64 1.76 1.83 1.87 2.00 2.18 2.34 2.28 2.48 2.90 2.93 2.79 2.71 2.54 2.48 2.55 2.48 2.16 2.03 1.75 1.65 1.63 1.53 1.60 1.60 1.64 1.87 2.03 1.60 1.32 1.17 1.42 1.60 1.78 2.05 2.48 2.94 3.17 3.16 3.17 3.01
1.48 1.42 1.45 1.55 1.67 1.86 1.92 1.99 2.04 2.00 2.10 2.36 2.48 2.66 2.76 2.54 2.43 2.35 2.33 2.38 2.14 1.84 1.68 1.56 1.42 1.45 1.46 1.50 1.75 1.89 1.54 1.35 1.05 1.04 1.16 1.37 1.53 1.76 2.14 2.57 2.93 3.10 3.17
1.21 1.13 1.13 1.21 1.28 1.36 1.46 1.61 1.72 1.83 1.88 2.01 2.16 2.29 2.45 2.57 2.51 2.33 2.30 2.30 2.26 2.06 1.84 1.70 1.52 1.34 1.42 1.53 1.78 1.56 1.47 1.44 1.19 1.04 0.98 1.06 1.25 1.37 1.52 1.69 1.92 2.25 2.56
1.14 1.06 1.01 0.99 0.98 0.94 0.98 1.17 1.39 1.51 1.61 1.77 1.95 2.09 2.14 2.21 2.39 2.38 2.23 2.24 2.16 2.04 1.90 1.69 1.58 1.43 1.58 1.51 1.69 1.50 1.52 1.59 1.28 1.14 1.02 0.98 1.02 1.02 1.00 1.08 1.16 1.31 1.66
1.14 1.11 1.01 0.96 1.05 1.04 0.99 1.05 1.12 1.20 1.28 1.43 1.56 1.70 1.85 2.09 2.39 2.44 2.39 2.28 2.19 2.07 1.85 1.67 1.49 1.39 1.67 1.77 1.70 1.59 1.57 1.53 1.29 1.20 1.07 0.96 0.94 0.91 0.88 0.83 0.86 0.96 1.10
0.79 0.88 0.98 0.91 0.90 0.93 0.95 1.01 1.03 1.08 1.13 1.24 1.35 1.48 1.65 1.93 2.27 2.48 2.57 2.45 2.31 2.18 2.05 1.92 1.61 1.36 1.46 1.78 1.91 1.85 1.68 1.52 1.36 1.28 1.11 0.99 0.94 0.86 0.82 0.80 0.78 0.79 0.78
0.62 0.66 0.75 0.75 0.84 0.92 0.95 0.99 0.99 1.03 1.07 1.16 1.31 1.37 1.42 1.62 1.81 2.01 2.20 2.34 2.31 2.28 2.27 2.04 1.76 1.50 1.42 1.55 1.80 1.81 1.76 1.76 1.52 1.44 1.40 1.25 1.10 0.99 0.89 0.80 0.79 0.76 0.71
0.69 0.73 0.84 0.87 0.82 0.80 0.85 0.96 1.00 0.98 0.97 1.00 1.08 1.18 1.26 1.31 1.48 1.63 1.73 1.95 2.16 2.39 2.45 2.29 2.04 1.73 1.60 1.48 1.58 1.75 1.82 1.78 1.70 1.52 1.48 1.35 1.33 1.24 1.12 0.96 0.82 0.75 0.75
0.76 0.77 0.86 0.95 1.00 0.95 0.91 0.99 0.96 0.96 0.97 0.95 0.99 0.99 1.06 1.09 1.16 1.34 1.38 1.61 1.95 2.22 2.31 2.37 2.24 1.93 1.68 1.50 1.29 1.41 1.68 1.90 1.89 1.82 1.81 1.56 1.41 1.26 1.17 1.13 1.05 0.91 0.81
0.65 0.62 0.65 0.71 0.79 0.85 1.10 1.04 0.86 0.81 0.86 0.92 0.96 0.96 0.98 0.93 0.91 0.98 1.11 1.23 1.53 1.75 1.90 1.98 1.99 1.83 1.62 1.50 1.45 1.42 1.50 1.64 1.69 1.59 1.63 1.70 1.61 1.45 1.35 1.22 1.23 1.26 1.16
0.54 0.51 0.50 0.49 0.55 0.73 0.84 0.68 0.65 0.68 0.80 0.91 0.98 1.02 0.99 0.92 0.96 0.97 0.99 0.99 1.05 1.23 1.46 1.68 1.70 1.59 1.66 1.57 1.51 1.40 1.42 1.43 1.41 1.52 1.60 1.67 1.64 1.52 1.44 1.42 1.45 1.34 1.28
0.47 0.46 0.51 0.58 0.59 0.62 0.71 0.58 0.55 0.62 0.83 0.95 0.94 0.90 0.98 1.00 1.02 1.08 1.01 1.06 1.00 0.98 1.08 1.13 1.27 1.48 1.64 1.81 1.79 1.68 1.68 1.62 1.52 1.63 1.65 1.61 1.51 1.42 1.32 1.29 1.35 1.22 1.13
0.55 0.53 0.63 0.70 0.65 0.60 0.66 0.63 0.65 0.76 0.90 0.98 0.93 0.94 1.03 1.07 1.21 1.24 1.14 1.19 1.14 1.11 1.08 1.19 1.29 1.40 1.49 1.62 1.77 1.81 1.77 1.74 1.59 1.52 1.53 1.47 1.36 1.37 1.35 1.23 1.15 1.15 1.05
0.51 0.56 0.58 0.55 0.55 0.62 0.72 0.68 0.75 0.89 1.03 1.13 1.08 1.08 1.29 1.24 1.23 1.17 1.11 1.26 1.22 1.08 1.01 1.05 1.11 1.20 1.24 1.35 1.49 1.54 1.68 1.75 1.65 1.50 1.30 1.28 1.28 1.33 1.37 1.24 1.11 1.03 1.00